GLO8001 SBCT-SBBR

Flight info

Callsign GLO8001
Flight time 1h 35m
Altitude 37000
Route GIKLU UZ5 VUDOT
Aircraft B738/M-V/N

Departure

Time 2026-04-29 21:40
Airport Curitiba-Afonso Pena International Airport (SBCT)

Arrival

Time 2026-04-29 23:15
Airport Presidente Juscelino Kubitschek International Airport (SBBR)
Time Latitude Longitude Altitude Speed Heading
2026-04-29 21:17 -25.53601 -49.17177 2983 ft 0 kts 226°
2026-04-29 21:22 -25.53598 -49.17174 2983 ft 3 kts 232°
2026-04-29 21:22 -25.53593 -49.17156 2983 ft 3 kts 295°
2026-04-29 21:22 -25.53597 -49.17148 2983 ft 0 kts 318°
2026-04-29 21:26 -25.53597 -49.17149 2983 ft 0 kts 318°
2026-04-29 21:26 -25.53593 -49.17153 2983 ft 1 kts 319°
2026-04-29 21:26 -25.53581 -49.17161 2983 ft 3 kts 331°
2026-04-29 21:27 -25.53551 -49.17171 2983 ft 6 kts 348°
2026-04-29 21:27 -25.53510 -49.17161 2984 ft 6 kts 34°
2026-04-29 21:27 -25.53474 -49.17136 2983 ft 6 kts 13°
2026-04-29 21:27 -25.53436 -49.17151 2984 ft 6 kts 325°
2026-04-29 21:28 -25.53404 -49.17181 2984 ft 6 kts 316°
2026-04-29 21:28 -25.53376 -49.17214 2984 ft 6 kts 313°
2026-04-29 21:28 -25.53348 -49.17245 2985 ft 6 kts 315°
2026-04-29 21:28 -25.53319 -49.17278 2985 ft 6 kts 313°
2026-04-29 21:29 -25.53288 -49.17315 2985 ft 7 kts 314°
2026-04-29 21:29 -25.53253 -49.17351 2986 ft 7 kts 316°
2026-04-29 21:29 -25.53220 -49.17388 2986 ft 7 kts 315°
2026-04-29 21:29 -25.53187 -49.17423 2986 ft 6 kts 317°
2026-04-29 21:30 -25.53155 -49.17458 2987 ft 7 kts 315°
2026-04-29 21:30 -25.53119 -49.17498 2987 ft 8 kts 314°
2026-04-29 21:30 -25.53082 -49.17539 2987 ft 7 kts 314°
2026-04-29 21:30 -25.53047 -49.17579 2988 ft 7 kts 314°
2026-04-29 21:31 -25.53013 -49.17618 2988 ft 7 kts 314°
2026-04-29 21:31 -25.52987 -49.17661 2988 ft 7 kts 290°
2026-04-29 21:31 -25.52984 -49.17713 2988 ft 7 kts 271°
2026-04-29 21:31 -25.52982 -49.17764 2989 ft 7 kts 274°
2026-04-29 21:32 -25.52979 -49.17814 2989 ft 6 kts 270°
2026-04-29 21:32 -25.52975 -49.17862 2989 ft 6 kts 296°
2026-04-29 21:32 -25.52947 -49.17899 2990 ft 6 kts 313°
2026-04-29 21:32 -25.52917 -49.17932 2990 ft 6 kts 316°
2026-04-29 21:33 -25.52886 -49.17963 2989 ft 6 kts 317°
2026-04-29 21:33 -25.52857 -49.17993 2988 ft 2 kts 317°
2026-04-29 21:33 -25.52855 -49.17993 2988 ft 1 kts 331°
2026-04-29 21:33 -25.52850 -49.17992 2988 ft 0 kts 358°
2026-04-29 21:38 -25.52849 -49.17992 2988 ft 1 kts 359°
2026-04-29 21:38 -25.52837 -49.17981 2988 ft 3 kts 56°
2026-04-29 21:38 -25.52834 -49.17969 2988 ft 0 kts 85°
2026-04-29 21:39 -25.52833 -49.17941 2988 ft 24 kts 89°
2026-04-29 21:39 -25.52846 -49.17425 2989 ft 109 kts 91°
2026-04-29 21:39 -25.52864 -49.16324 3109 ft 168 kts 90°
2026-04-29 21:40 -25.52806 -49.14859 3491 ft 213 kts 86°
2026-04-29 21:40 -25.52827 -49.13059 3795 ft 254 kts 95°
2026-04-29 21:40 -25.53033 -49.10981 4074 ft 284 kts 93°
2026-04-29 21:40 -25.52760 -49.08857 4253 ft 273 kts 64°
2026-04-29 21:41 -25.51783 -49.07092 4482 ft 269 kts 53°
2026-04-29 21:41 -25.50744 -49.05346 4841 ft 274 kts 55°
2026-04-29 21:41 -25.49743 -49.03521 5321 ft 278 kts 57°
2026-04-29 21:41 -25.48769 -49.01664 5865 ft 280 kts 57°
2026-04-29 21:42 -25.47793 -48.99766 6290 ft 286 kts 57°
2026-04-29 21:42 -25.46815 -48.97848 6794 ft 287 kts 57°
2026-04-29 21:42 -25.45760 -48.95959 7219 ft 289 kts 45°
2026-04-29 21:42 -25.44169 -48.94687 7654 ft 281 kts 17°
2026-04-29 21:43 -25.42303 -48.94110 8484 ft 281 kts
2026-04-29 21:43 -25.40386 -48.93604 9297 ft 284 kts
2026-04-29 21:43 -25.38470 -48.93110 10103 ft 288 kts
2026-04-29 21:43 -25.36461 -48.92622 10567 ft 307 kts
2026-04-29 21:44 -25.34295 -48.92024 10758 ft 333 kts
2026-04-29 21:44 -25.32008 -48.91389 11298 ft 342 kts
2026-04-29 21:44 -25.29684 -48.90747 11992 ft 345 kts
2026-04-29 21:44 -25.27344 -48.90105 12707 ft 348 kts
2026-04-29 21:45 -25.24971 -48.89460 13331 ft 354 kts
2026-04-29 21:45 -25.22560 -48.88804 13992 ft 357 kts
2026-04-29 21:45 -25.20137 -48.88142 14597 ft 361 kts
2026-04-29 21:45 -25.17690 -48.87479 15193 ft 364 kts
2026-04-29 21:46 -25.15213 -48.86816 15820 ft 366 kts
2026-04-29 21:46 -25.12712 -48.86712 16387 ft 358 kts 345°
2026-04-29 21:46 -25.10347 -48.87375 17021 ft 355 kts 339°
2026-04-29 21:46 -25.07949 -48.88191 17595 ft 358 kts 337°
2026-04-29 21:47 -25.05597 -48.89022 18141 ft 361 kts 337°
2026-04-29 21:47 -25.03190 -48.89877 18637 ft 364 kts 337°
2026-04-29 21:47 -25.00763 -48.90732 19116 ft 367 kts 338°
2026-04-29 21:47 -24.98320 -48.91583 19645 ft 369 kts 338°
2026-04-29 21:48 -24.95871 -48.92428 20189 ft 368 kts 337°
2026-04-29 21:48 -24.93421 -48.93268 20675 ft 371 kts 337°
2026-04-29 21:48 -24.90942 -48.94118 21128 ft 374 kts 337°
2026-04-29 21:48 -24.88455 -48.94970 21679 ft 375 kts 337°
2026-04-29 21:49 -24.85957 -48.95823 22142 ft 377 kts 337°
2026-04-29 21:49 -24.83446 -48.96676 22609 ft 379 kts 337°
2026-04-29 21:49 -24.80914 -48.97539 22952 ft 383 kts 337°
2026-04-29 21:49 -24.78362 -48.98403 23397 ft 385 kts 337°
2026-04-29 21:50 -24.75823 -48.99267 23727 ft 388 kts 336°
2026-04-29 21:50 -24.73227 -49.00151 24044 ft 390 kts 337°
2026-04-29 21:50 -24.70624 -49.01034 24460 ft 391 kts 337°
2026-04-29 21:50 -24.68024 -49.01916 24818 ft 392 kts 337°
2026-04-29 21:51 -24.65407 -49.02808 25205 ft 394 kts 337°
2026-04-29 21:51 -24.62810 -49.03688 25581 ft 395 kts 337°
2026-04-29 21:51 -24.57534 -49.05474 26271 ft 398 kts 337°
2026-04-29 21:52 -24.54881 -49.06374 26585 ft 400 kts 336°
2026-04-29 21:52 -24.52211 -49.07277 26902 ft 402 kts 336°
2026-04-29 21:52 -24.49532 -49.08182 27214 ft 404 kts 336°
2026-04-29 21:52 -24.46837 -49.09093 27542 ft 405 kts 336°
2026-04-29 21:53 -24.44136 -49.10006 27854 ft 407 kts 337°
2026-04-29 21:53 -24.41428 -49.10923 28134 ft 408 kts 336°
2026-04-29 21:53 -24.38698 -49.11847 28355 ft 411 kts 337°
2026-04-29 21:53 -24.35988 -49.12764 28553 ft 414 kts 337°
2026-04-29 21:54 -24.33228 -49.13694 28829 ft 415 kts 337°
2026-04-29 21:54 -24.30461 -49.14625 29152 ft 416 kts 336°
2026-04-29 21:54 -24.27688 -49.15558 29416 ft 417 kts 336°
2026-04-29 21:54 -24.24907 -49.16495 29664 ft 419 kts 336°
2026-04-29 21:55 -24.22113 -49.17436 29923 ft 421 kts 336°
2026-04-29 21:55 -24.19303 -49.18382 30169 ft 422 kts 336°
2026-04-29 21:55 -24.16489 -49.19330 30322 ft 425 kts 336°
2026-04-29 21:55 -24.13648 -49.20287 30471 ft 428 kts 336°
2026-04-29 21:56 -24.11766 -49.20919 30604 ft 428 kts 336°
2026-04-29 21:56 -24.07942 -49.22204 30935 ft 428 kts 336°
2026-04-29 21:56 -24.05129 -49.23147 31220 ft 427 kts 336°
2026-04-29 21:56 -24.02289 -49.24100 31521 ft 425 kts 336°
2026-04-29 21:57 -23.99463 -49.25048 31780 ft 424 kts 336°
2026-04-29 21:57 -23.96641 -49.25994 32004 ft 425 kts 336°
2026-04-29 21:57 -23.93805 -49.26945 32186 ft 426 kts 336°
2026-04-29 21:57 -23.90967 -49.27896 32436 ft 427 kts 336°
2026-04-29 21:58 -23.88136 -49.28844 32757 ft 425 kts 336°
2026-04-29 21:58 -23.85313 -49.29789 33073 ft 423 kts 336°
2026-04-29 21:58 -23.82501 -49.30730 33352 ft 423 kts 336°
2026-04-29 21:58 -23.79688 -49.31672 33644 ft 422 kts 336°
2026-04-29 21:59 -23.76879 -49.32611 33956 ft 421 kts 336°
2026-04-29 21:59 -23.74109 -49.33537 34193 ft 420 kts 336°
2026-04-29 21:59 -23.71273 -49.34484 34381 ft 422 kts 336°
2026-04-29 21:59 -23.68502 -49.35411 34585 ft 422 kts 337°
2026-04-29 22:00 -23.65697 -49.36347 34870 ft 420 kts 337°
2026-04-29 22:00 -23.62904 -49.37279 35156 ft 419 kts 337°
2026-04-29 22:00 -23.60120 -49.38207 35399 ft 418 kts 337°
2026-04-29 22:00 -23.57338 -49.39135 35611 ft 418 kts 337°
2026-04-29 22:01 -23.54560 -49.40061 35848 ft 417 kts 337°
2026-04-29 22:01 -23.51782 -49.40988 36090 ft 417 kts 338°
2026-04-29 22:01 -23.49005 -49.41913 36233 ft 419 kts 338°
2026-04-29 22:01 -23.46214 -49.42842 36432 ft 419 kts 338°
2026-04-29 22:02 -23.43376 -49.43615 36661 ft 425 kts 348°
2026-04-29 22:02 -23.40388 -49.43584 36899 ft 437 kts
2026-04-29 22:02 -23.37431 -49.42916 37065 ft 442 kts
2026-04-29 22:02 -23.34422 -49.42128 37039 ft 445 kts
2026-04-29 22:03 -23.28409 -49.40559 37045 ft 441 kts
2026-04-29 22:03 -23.22438 -49.39096 37039 ft 438 kts
2026-04-29 22:04 -23.16504 -49.37557 37040 ft 438 kts
2026-04-29 22:04 -23.10604 -49.35901 37042 ft 438 kts
2026-04-29 22:05 -23.04734 -49.34264 37045 ft 438 kts
2026-04-29 22:06 -22.95842 -49.31814 37037 ft 440 kts
2026-04-29 22:06 -22.89888 -49.30178 37036 ft 442 kts
2026-04-29 22:07 -22.83908 -49.28534 37037 ft 444 kts
2026-04-29 22:07 -22.77910 -49.26884 37025 ft 445 kts
2026-04-29 22:08 -22.71933 -49.25241 37021 ft 446 kts
2026-04-29 22:08 -22.65920 -49.23590 37014 ft 446 kts
2026-04-29 22:09 -22.60878 -49.22206 37015 ft 445 kts
2026-04-29 22:09 -22.54901 -49.20561 37002 ft 445 kts
2026-04-29 22:10 -22.48910 -49.18851 36997 ft 445 kts
2026-04-29 22:10 -22.42943 -49.17144 36991 ft 443 kts
2026-04-29 22:11 -22.36985 -49.15486 36987 ft 441 kts
2026-04-29 22:11 -22.31037 -49.14026 36993 ft 440 kts
2026-04-29 22:12 -22.25055 -49.12578 36987 ft 440 kts
2026-04-29 22:12 -22.19084 -49.11106 36990 ft 440 kts
2026-04-29 22:13 -22.13120 -49.09630 36985 ft 440 kts
2026-04-29 22:13 -22.07179 -49.08162 36989 ft 440 kts
2026-04-29 22:14 -22.01216 -49.06691 36981 ft 440 kts
2026-04-29 22:14 -21.95244 -49.05219 36978 ft 440 kts
2026-04-29 22:15 -21.89244 -49.03740 36972 ft 441 kts
2026-04-29 22:15 -21.83254 -49.02265 36971 ft 442 kts
2026-04-29 22:16 -21.77284 -49.00796 36978 ft 443 kts
2026-04-29 22:16 -21.71257 -48.99315 36973 ft 445 kts
2026-04-29 22:17 -21.65216 -48.97845 36957 ft 444 kts
2026-04-29 22:17 -21.59127 -48.96787 36974 ft 442 kts
2026-04-29 22:18 -21.53026 -48.95869 36979 ft 443 kts
2026-04-29 22:18 -21.46902 -48.94917 36972 ft 444 kts
2026-04-29 22:19 -21.40780 -48.93938 36961 ft 445 kts
2026-04-29 22:19 -21.34703 -48.92961 36971 ft 445 kts
2026-04-29 22:20 -21.28583 -48.91980 36977 ft 444 kts
2026-04-29 22:20 -21.22475 -48.91002 36983 ft 443 kts
2026-04-29 22:21 -21.16362 -48.90024 36979 ft 443 kts
2026-04-29 22:21 -21.10263 -48.89050 36975 ft 442 kts
2026-04-29 22:22 -21.04177 -48.88078 36985 ft 442 kts
2026-04-29 22:22 -20.98130 -48.87113 36982 ft 441 kts
2026-04-29 22:23 -20.92055 -48.86145 36985 ft 441 kts
2026-04-29 22:23 -20.85991 -48.85179 36973 ft 441 kts
2026-04-29 22:24 -20.79926 -48.84213 36982 ft 440 kts
2026-04-29 22:24 -20.73869 -48.83250 36987 ft 440 kts
2026-04-29 22:25 -20.67815 -48.82288 36984 ft 440 kts
2026-04-29 22:25 -20.61745 -48.81563 36964 ft 438 kts
2026-04-29 22:26 -20.55669 -48.80991 36987 ft 438 kts 360°
2026-04-29 22:26 -20.49586 -48.80386 36987 ft 439 kts
2026-04-29 22:27 -20.43534 -48.79755 36986 ft 440 kts
2026-04-29 22:27 -20.37416 -48.79112 36979 ft 442 kts
2026-04-29 22:28 -20.31293 -48.78470 36978 ft 442 kts
2026-04-29 22:28 -20.25162 -48.77830 36979 ft 443 kts
2026-04-29 22:29 -20.19019 -48.77187 36984 ft 444 kts
2026-04-29 22:29 -20.12853 -48.76541 36975 ft 445 kts
2026-04-29 22:30 -20.06691 -48.75895 36968 ft 445 kts
2026-04-29 22:30 -20.00521 -48.75250 36985 ft 445 kts
2026-04-29 22:31 -19.94385 -48.74609 36984 ft 446 kts
2026-04-29 22:31 -19.88166 -48.73959 36979 ft 446 kts
2026-04-29 22:32 -19.82024 -48.73319 36978 ft 446 kts
2026-04-29 22:32 -19.75838 -48.72673 36991 ft 446 kts
2026-04-29 22:33 -19.69650 -48.72029 36989 ft 447 kts
2026-04-29 22:33 -19.63467 -48.71385 36995 ft 446 kts
2026-04-29 22:34 -19.57280 -48.70742 36994 ft 447 kts
2026-04-29 22:34 -19.51128 -48.70102 36995 ft 446 kts
2026-04-29 22:35 -19.44947 -48.69460 36998 ft 446 kts
2026-04-29 22:35 -19.38772 -48.68819 36993 ft 446 kts
2026-04-29 22:36 -19.32596 -48.68179 37006 ft 445 kts
2026-04-29 22:36 -19.26424 -48.67539 36995 ft 445 kts
2026-04-29 22:37 -19.20263 -48.66901 37003 ft 445 kts
2026-04-29 22:37 -19.14096 -48.66279 36997 ft 445 kts
2026-04-29 22:38 -19.07967 -48.65727 37005 ft 444 kts
2026-04-29 22:38 -19.01806 -48.65179 36996 ft 445 kts
2026-04-29 22:39 -18.95629 -48.64622 37009 ft 445 kts
2026-04-29 22:39 -18.89460 -48.64062 37013 ft 445 kts
2026-04-29 22:40 -18.83283 -48.63501 37014 ft 446 kts
2026-04-29 22:40 -18.77098 -48.62940 37007 ft 446 kts
2026-04-29 22:41 -18.70940 -48.62382 37016 ft 447 kts
2026-04-29 22:41 -18.64738 -48.61821 37012 ft 447 kts
2026-04-29 22:42 -18.58515 -48.61259 37009 ft 448 kts
2026-04-29 22:42 -18.52301 -48.60697 37005 ft 448 kts
2026-04-29 22:43 -18.46077 -48.60135 37004 ft 449 kts
2026-04-29 22:43 -18.39852 -48.59573 37006 ft 449 kts
2026-04-29 22:44 -18.33620 -48.59010 37003 ft 450 kts
2026-04-29 22:44 -18.27468 -48.57977 37016 ft 454 kts 13°
2026-04-29 22:45 -18.21434 -48.55919 37006 ft 456 kts 15°
2026-04-29 22:45 -18.15416 -48.53781 37005 ft 456 kts 15°
2026-04-29 22:46 -18.09386 -48.51722 36977 ft 456 kts 14°
2026-04-29 22:46 -18.06355 -48.50710 36707 ft 457 kts 14°
2026-04-29 22:46 -18.03329 -48.49707 36462 ft 454 kts 14°
2026-04-29 22:46 -18.00318 -48.48713 36123 ft 455 kts 14°
2026-04-29 22:47 -17.97312 -48.47722 35631 ft 458 kts 14°
2026-04-29 22:47 -17.94235 -48.46708 35159 ft 456 kts 14°
2026-04-29 22:47 -17.91221 -48.45713 34697 ft 453 kts 14°
2026-04-29 22:47 -17.88262 -48.44736 34253 ft 450 kts 14°
2026-04-29 22:48 -17.85279 -48.43751 33773 ft 448 kts 14°
2026-04-29 22:48 -17.82314 -48.42773 33264 ft 445 kts 15°
2026-04-29 22:48 -17.79365 -48.41800 32768 ft 443 kts 15°
2026-04-29 22:48 -17.76429 -48.40832 32277 ft 441 kts 15°
2026-04-29 22:49 -17.73509 -48.39870 31797 ft 439 kts 15°
2026-04-29 22:49 -17.70600 -48.38911 31329 ft 437 kts 15°
2026-04-29 22:49 -17.67705 -48.37958 30896 ft 434 kts 15°
2026-04-29 22:49 -17.64838 -48.37013 30561 ft 429 kts 15°
2026-04-29 22:50 -17.62003 -48.36080 30216 ft 425 kts 15°
2026-04-29 22:50 -17.59196 -48.35156 29839 ft 421 kts 15°
2026-04-29 22:50 -17.56412 -48.34240 29444 ft 416 kts 16°
2026-04-29 22:50 -17.53662 -48.33336 29051 ft 412 kts 16°
2026-04-29 22:51 -17.50937 -48.32440 28657 ft 408 kts 15°
2026-04-29 22:51 -17.48245 -48.31555 28279 ft 403 kts 16°
2026-04-29 22:51 -17.42976 -48.29824 27545 ft 396 kts 16°
2026-04-29 22:52 -17.40355 -48.28964 27172 ft 392 kts 16°
2026-04-29 22:52 -17.37765 -48.28114 26817 ft 388 kts 16°
2026-04-29 22:52 -17.35198 -48.27272 26460 ft 385 kts 16°
2026-04-29 22:52 -17.32647 -48.26435 26109 ft 382 kts 16°
2026-04-29 22:53 -17.30126 -48.25608 25762 ft 378 kts 16°
2026-04-29 22:53 -17.27622 -48.24787 25419 ft 375 kts 16°
2026-04-29 22:53 -17.25141 -48.23974 25080 ft 372 kts 16°
2026-04-29 22:53 -17.22680 -48.23168 24749 ft 369 kts 16°
2026-04-29 22:54 -17.20239 -48.22368 24415 ft 366 kts 16°
2026-04-29 22:54 -17.17811 -48.21573 24089 ft 364 kts 16°
2026-04-29 22:54 -17.16218 -48.21051 23874 ft 362 kts 16°
2026-04-29 22:54 -17.13819 -48.20266 23478 ft 361 kts 16°
2026-04-29 22:55 -17.11425 -48.19483 23014 ft 360 kts 16°
2026-04-29 22:55 -17.09033 -48.18700 22549 ft 360 kts 16°
2026-04-29 22:55 -17.06641 -48.17918 22112 ft 359 kts 16°
2026-04-29 22:55 -17.04250 -48.17136 21671 ft 358 kts 16°
2026-04-29 22:56 -17.01902 -48.16369 21234 ft 358 kts 17°
2026-04-29 22:56 -16.99525 -48.15592 20813 ft 357 kts 17°
2026-04-29 22:56 -16.97146 -48.14814 20393 ft 356 kts 17°
2026-04-29 22:56 -16.94776 -48.14040 19974 ft 355 kts 17°
2026-04-29 22:57 -16.92417 -48.13269 19563 ft 355 kts 17°
2026-04-29 22:57 -16.89304 -48.12253 19031 ft 353 kts 17°
2026-04-29 22:57 -16.87748 -48.11745 18767 ft 353 kts 17°
2026-04-29 22:57 -16.85405 -48.10980 18373 ft 352 kts 17°
2026-04-29 22:58 -16.83069 -48.10218 17928 ft 351 kts 17°
2026-04-29 22:58 -16.80736 -48.09457 17476 ft 350 kts 17°
2026-04-29 22:58 -16.78400 -48.08749 17051 ft 349 kts 10°
2026-04-29 22:58 -16.76008 -48.08710 16807 ft 342 kts 352°
2026-04-29 22:59 -16.73688 -48.09173 16547 ft 336 kts 348°
2026-04-29 22:59 -16.71416 -48.09704 16250 ft 333 kts 348°
2026-04-29 22:59 -16.69165 -48.10245 15937 ft 330 kts 348°
2026-04-29 22:59 -16.66935 -48.10776 15630 ft 327 kts 348°
2026-04-29 23:00 -16.64723 -48.11295 15329 ft 325 kts 348°
2026-04-29 23:00 -16.62519 -48.11805 15029 ft 323 kts 348°
2026-04-29 23:00 -16.60364 -48.12299 14735 ft 321 kts 348°
2026-04-29 23:00 -16.58188 -48.12795 14439 ft 319 kts 348°
2026-04-29 23:01 -16.56024 -48.13286 14153 ft 317 kts 348°
2026-04-29 23:01 -16.53869 -48.13774 13860 ft 316 kts 348°
2026-04-29 23:01 -16.51735 -48.14257 13603 ft 312 kts 348°
2026-04-29 23:01 -16.49616 -48.14736 13339 ft 308 kts 348°
2026-04-29 23:02 -16.47531 -48.15208 13096 ft 305 kts 348°
2026-04-29 23:02 -16.45463 -48.15675 12840 ft 302 kts 348°
2026-04-29 23:02 -16.43412 -48.16138 12589 ft 300 kts 348°
2026-04-29 23:02 -16.41381 -48.16597 12350 ft 297 kts 348°
2026-04-29 23:03 -16.39367 -48.17052 12107 ft 295 kts 348°
2026-04-29 23:03 -16.37367 -48.17503 11860 ft 293 kts 348°
2026-04-29 23:03 -16.35381 -48.17951 11619 ft 291 kts 348°
2026-04-29 23:03 -16.33409 -48.18396 11383 ft 289 kts 348°
2026-04-29 23:04 -16.31444 -48.18839 11147 ft 288 kts 348°
2026-04-29 23:04 -16.29490 -48.19280 10913 ft 286 kts 348°
2026-04-29 23:04 -16.27571 -48.19712 10686 ft 285 kts 348°
2026-04-29 23:04 -16.25635 -48.20146 10456 ft 284 kts 348°
2026-04-29 23:05 -16.23707 -48.20579 10228 ft 283 kts 348°
2026-04-29 23:05 -16.21786 -48.21009 10003 ft 282 kts 347°
2026-04-29 23:05 -16.19868 -48.21439 9761 ft 281 kts 347°
2026-04-29 23:05 -16.17958 -48.21868 9500 ft 280 kts 348°
2026-04-29 23:06 -16.16055 -48.22288 9244 ft 279 kts 350°
2026-04-29 23:06 -16.14136 -48.22223 8999 ft 275 kts 14°
2026-04-29 23:06 -16.12336 -48.21742 8792 ft 267 kts 15°
2026-04-29 23:06 -16.10561 -48.21268 8525 ft 260 kts 15°
2026-04-29 23:07 -16.08828 -48.20810 8273 ft 254 kts 15°
2026-04-29 23:07 -16.07131 -48.20367 8033 ft 249 kts 15°
2026-04-29 23:07 -16.05469 -48.19937 7784 ft 245 kts 15°
2026-04-29 23:07 -16.03795 -48.19506 7514 ft 247 kts 15°
2026-04-29 23:08 -16.02125 -48.19077 7298 ft 247 kts 15°
2026-04-29 23:08 -16.00446 -48.18647 7063 ft 248 kts 15°
2026-04-29 23:08 -15.98761 -48.18272 6853 ft 247 kts
2026-04-29 23:08 -15.97065 -48.18345 6647 ft 241 kts 357°
2026-04-29 23:09 -15.95420 -48.18490 6431 ft 233 kts 357°
2026-04-29 23:09 -15.93851 -48.18381 6149 ft 223 kts 25°
2026-04-29 23:09 -15.92730 -48.17420 5997 ft 206 kts 53°
2026-04-29 23:09 -15.91964 -48.16216 5939 ft 196 kts 61°
2026-04-29 23:10 -15.91283 -48.15007 5937 ft 193 kts 62°
2026-04-29 23:10 -15.90606 -48.13806 5928 ft 191 kts 61°
2026-04-29 23:10 -15.89924 -48.12605 5936 ft 195 kts 62°
2026-04-29 23:10 -15.89270 -48.11374 5922 ft 194 kts 72°
2026-04-29 23:11 -15.89105 -48.10051 5976 ft 177 kts 89°
2026-04-29 23:11 -15.89028 -48.08801 5941 ft 170 kts 86°
2026-04-29 23:11 -15.88945 -48.07609 5932 ft 158 kts 87°
2026-04-29 23:11 -15.88871 -48.06505 5790 ft 152 kts 87°
2026-04-29 23:12 -15.88802 -48.05445 5620 ft 147 kts 87°
2026-04-29 23:12 -15.88735 -48.04405 5442 ft 144 kts 86°
2026-04-29 23:12 -15.88667 -48.03351 5269 ft 148 kts 87°
2026-04-29 23:12 -15.88599 -48.02281 5090 ft 150 kts 87°
2026-04-29 23:13 -15.88529 -48.01199 4893 ft 149 kts 87°
2026-04-29 23:13 -15.88460 -48.00125 4700 ft 149 kts 87°
2026-04-29 23:13 -15.88391 -47.99057 4499 ft 147 kts 87°
2026-04-29 23:13 -15.88324 -47.98004 4313 ft 145 kts 86°
2026-04-29 23:14 -15.88256 -47.96956 4126 ft 147 kts 88°
2026-04-29 23:14 -15.88188 -47.95887 3934 ft 149 kts 87°
2026-04-29 23:14 -15.88119 -47.94813 3723 ft 148 kts 88°
2026-04-29 23:14 -15.88054 -47.93757 3506 ft 144 kts 89°
2026-04-29 23:15 -15.87993 -47.92832 3475 ft 95 kts 85°
2026-04-29 23:15 -15.87958 -47.92291 3476 ft 69 kts 85°
2026-04-29 23:15 -15.87933 -47.91977 3472 ft 25 kts 86°
2026-04-29 23:15 -15.87876 -47.91813 3471 ft 23 kts 60°
2026-04-29 23:16 -15.87789 -47.91675 3469 ft 23 kts 57°
2026-04-29 23:16 -15.87690 -47.91557 3469 ft 22 kts 15°
2026-04-29 23:16 -15.87541 -47.91562 3469 ft 21 kts 356°
2026-04-29 23:16 -15.87395 -47.91573 3469 ft 21 kts 356°
2026-04-29 23:17 -15.87261 -47.91589 3469 ft 19 kts 335°
2026-04-29 23:17 -15.87185 -47.91672 3469 ft 15 kts 349°
2026-04-29 23:17 -15.87155 -47.91690 3469 ft 4 kts 298°
2026-04-29 23:17 -15.87153 -47.91716 3469 ft 4 kts 270°
2026-04-29 23:18 -15.87153 -47.91731 3469 ft 1 kts 261°
2026-04-29 23:18 -15.87155 -47.91742 3469 ft 2 kts 262°
2026-04-29 23:18 -15.87155 -47.91744 3469 ft 0 kts 262°